TimeCDT,TemperatureF,Dew PointF,Humidity,Sea Level PressureIn,VisibilityMPH,Wind Direction,Wind SpeedMPH,Gust SpeedMPH,PrecipitationIn,Events,Conditions,WindDirDegrees,DateUTC
12:15 AM,59.4,57.4,93,30.13,10.0,South,5.8,-,N/A,,Clear,170,2013-08-18 05:15:00
12:35 AM,59.4,57.2,93,30.13,10.0,South,6.9,-,N/A,,Clear,170,2013-08-18 05:35:00
12:55 AM,59.4,57.2,93,30.13,10.0,South,6.9,-,N/A,,Clear,180,2013-08-18 05:55:00
1:15 AM,58.6,56.5,93,30.14,10.0,South,4.6,-,N/A,,Clear,180,2013-08-18 06:15:00
1:35 AM,58.3,56.5,94,30.13,10.0,South,4.6,-,N/A,,Clear,180,2013-08-18 06:35:00
1:55 AM,58.1,56.3,94,30.14,10.0,South,3.5,-,N/A,,Clear,180,2013-08-18 06:55:00
2:15 AM,57.2,55.4,94,30.13,7.0,Calm,Calm,-,N/A,,Scattered Clouds,0,2013-08-18 07:15:00
2:35 AM,56.7,55.4,96,30.13,7.0,Calm,Calm,-,N/A,,Scattered Clouds,0,2013-08-18 07:35:00
2:55 AM,56.7,55.0,94,30.13,10.0,Calm,Calm,-,N/A,,Scattered Clouds,0,2013-08-18 07:55:00
3:15 AM,56.7,55.0,94,30.13,10.0,Calm,Calm,-,N/A,,Scattered Clouds,0,2013-08-18 08:15:00
3:35 AM,57.2,55.0,92,30.12,10.0,SW,3.5,-,N/A,,Clear,220,2013-08-18 08:35:00
3:55 AM,56.7,54.7,93,30.12,10.0,Calm,Calm,-,N/A,,Scattered Clouds,0,2013-08-18 08:55:00
4:15 AM,56.3,54.7,94,30.13,7.0,WSW,3.5,-,N/A,,Scattered Clouds,240,2013-08-18 09:15:00
4:35 AM,56.5,54.5,93,30.12,10.0,Calm,Calm,-,N/A,,Scattered Clouds,0,2013-08-18 09:35:00
4:55 AM,55.9,54.0,93,30.12,10.0,South,4.6,-,N/A,,Scattered Clouds,180,2013-08-18 09:55:00
5:15 AM,55.8,54.0,94,30.12,10.0,South,3.5,-,N/A,,Clear,190,2013-08-18 10:15:00
5:35 AM,56.5,54.3,92,30.12,10.0,South,5.8,-,N/A,,Scattered Clouds,180,2013-08-18 10:35:00
5:55 AM,55.9,54.1,94,30.12,10.0,SSW,3.5,-,N/A,,Scattered Clouds,200,2013-08-18 10:55:00
6:15 AM,56.3,54.3,93,30.12,7.0,Calm,Calm,-,N/A,,Mostly Cloudy,0,2013-08-18 11:15:00
6:35 AM,55.4,53.8,94,30.13,7.0,SSW,3.5,-,N/A,,Scattered Clouds,200,2013-08-18 11:35:00
6:55 AM,55.8,53.8,93,30.13,7.0,South,5.8,-,N/A,,Scattered Clouds,190,2013-08-18 11:55:00
7:15 AM,56.3,54.5,94,30.14,7.0,SW,3.5,-,N/A,,Clear,220,2013-08-18 12:15:00
7:35 AM,57.2,55.4,94,30.14,5.0,Calm,Calm,-,N/A,,Clear,0,2013-08-18 12:35:00
7:55 AM,58.5,56.3,93,30.14,7.0,Calm,Calm,-,N/A,,Clear,0,2013-08-18 12:55:00
8:15 AM,60.3,57.6,91,30.14,7.0,South,4.6,-,N/A,,Mostly Cloudy,190,2013-08-18 13:15:00
8:35 AM,61.3,58.1,89,30.14,10.0,South,4.6,-,N/A,,Overcast,180,2013-08-18 13:35:00
8:55 AM,63.0,59.0,87,30.14,10.0,SSW,4.6,-,N/A,,Mostly Cloudy,200,2013-08-18 13:55:00
9:15 AM,64.4,59.5,84,30.14,10.0,South,6.9,-,N/A,,Overcast,190,2013-08-18 14:15:00
9:35 AM,66.0,59.5,80,30.13,10.0,South,6.9,-,N/A,,Mostly Cloudy,180,2013-08-18 14:35:00
9:55 AM,68.4,60.3,75,30.13,10.0,South,9.2,-,N/A,,Clear,180,2013-08-18 14:55:00
10:15 AM,69.8,60.1,71,30.13,10.0,South,11.5,-,N/A,,Clear,170,2013-08-18 15:15:00
10:35 AM,71.4,61.0,70,30.13,10.0,South,10.4,16.1,N/A,,Clear,190,2013-08-18 15:35:00
10:55 AM,71.6,59.9,66,30.13,10.0,South,12.7,-,N/A,,Clear,180,2013-08-18 15:55:00
11:15 AM,72.3,60.1,65,30.13,10.0,SSW,13.8,-,N/A,,Clear,200,2013-08-18 16:15:00
11:35 AM,73.0,60.1,64,30.12,10.0,South,15.0,18.4,N/A,,Clear,190,2013-08-18 16:35:00
11:55 AM,73.8,61.0,64,30.12,10.0,South,13.8,18.4,N/A,,Clear,170,2013-08-18 16:55:00
12:15 PM,74.3,61.0,63,30.12,10.0,South,15.0,-,N/A,,Clear,180,2013-08-18 17:15:00
12:35 PM,74.3,60.8,63,30.11,10.0,South,15.0,19.6,N/A,,Clear,190,2013-08-18 17:35:00
12:55 PM,74.5,61.5,64,30.10,10.0,South,15.0,-,N/A,,Clear,170,2013-08-18 17:55:00
1:15 PM,75.4,62.2,64,30.10,10.0,South,16.1,-,N/A,,Scattered Clouds,190,2013-08-18 18:15:00
1:35 PM,74.8,61.9,64,30.10,10.0,South,12.7,19.6,N/A,,Scattered Clouds,180,2013-08-18 18:35:00
1:55 PM,76.1,62.1,62,30.10,10.0,South,16.1,-,N/A,,Scattered Clouds,180,2013-08-18 18:55:00
2:15 PM,76.5,63.0,63,30.10,10.0,South,10.4,17.3,N/A,,Clear,180,2013-08-18 19:15:00
2:35 PM,76.6,62.8,62,30.09,10.0,South,13.8,-,N/A,,Clear,190,2013-08-18 19:35:00
2:55 PM,77.2,63.7,63,30.09,10.0,South,11.5,17.3,N/A,,Clear,190,2013-08-18 19:55:00
3:15 PM,77.7,63.5,61,30.08,10.0,South,9.2,16.1,N/A,,Clear,180,2013-08-18 20:15:00
3:35 PM,77.4,63.5,62,30.07,10.0,SSE,12.7,16.1,N/A,,Clear,160,2013-08-18 20:35:00
3:55 PM,77.9,64.4,63,30.06,10.0,South,11.5,17.3,N/A,,Clear,180,2013-08-18 20:55:00
4:15 PM,77.7,63.7,62,30.06,10.0,South,15.0,-,N/A,,Clear,180,2013-08-18 21:15:00
4:35 PM,77.9,63.7,61,30.06,10.0,South,11.5,-,N/A,,Clear,180,2013-08-18 21:35:00
4:55 PM,77.9,64.0,62,30.05,10.0,South,10.4,-,N/A,,Clear,180,2013-08-18 21:55:00
5:15 PM,77.5,62.6,60,30.05,10.0,South,11.5,17.3,N/A,,Clear,170,2013-08-18 22:15:00
5:35 PM,77.7,63.0,60,30.05,10.0,South,9.2,-,N/A,,Clear,180,2013-08-18 22:35:00
5:55 PM,77.4,63.5,62,30.05,10.0,South,10.4,-,N/A,,Clear,170,2013-08-18 22:55:00
6:15 PM,76.8,63.7,64,30.05,10.0,SSE,8.1,-,N/A,,Clear,160,2013-08-18 23:15:00
6:35 PM,76.1,63.7,65,30.05,10.0,South,8.1,-,N/A,,Clear,170,2013-08-18 23:35:00
6:55 PM,75.0,63.5,67,30.05,10.0,SSE,5.8,-,N/A,,Mostly Cloudy,160,2013-08-18 23:55:00
7:15 PM,74.3,64.4,71,30.05,10.0,SSE,8.1,-,N/A,,Overcast,160,2013-08-19 00:15:00
7:35 PM,73.4,63.9,72,30.05,10.0,SSE,6.9,-,N/A,,Overcast,160,2013-08-19 00:35:00
7:55 PM,72.7,63.9,74,30.05,10.0,SSE,8.1,-,N/A,,Overcast,160,2013-08-19 00:55:00
8:15 PM,72.1,63.5,74,30.05,10.0,SSE,8.1,-,N/A,,Overcast,150,2013-08-19 01:15:00
8:35 PM,72.1,62.6,72,30.05,10.0,SSE,9.2,-,N/A,,Overcast,150,2013-08-19 01:35:00
8:55 PM,71.8,62.2,72,30.05,10.0,SSE,10.4,-,N/A,,Overcast,150,2013-08-19 01:55:00
9:15 PM,71.6,62.4,73,30.05,10.0,SSE,10.4,-,N/A,,Overcast,150,2013-08-19 02:15:00
9:35 PM,70.9,62.4,75,30.05,10.0,SSE,9.2,-,N/A,,Overcast,160,2013-08-19 02:35:00
9:55 PM,69.8,62.6,78,30.05,10.0,SSE,9.2,-,N/A,,Overcast,160,2013-08-19 02:55:00
10:15 PM,68.0,62.2,82,30.05,10.0,SSE,8.1,-,N/A,,Scattered Clouds,160,2013-08-19 03:15:00
10:35 PM,67.6,62.6,84,30.06,10.0,South,9.2,-,N/A,,Scattered Clouds,170,2013-08-19 03:35:00
10:55 PM,68.9,62.8,81,30.07,10.0,South,9.2,-,N/A,,Overcast,170,2013-08-19 03:55:00
11:15 PM,68.9,63.0,81,30.06,10.0,South,9.2,-,N/A,,Mostly Cloudy,180,2013-08-19 04:15:00
11:35 PM,68.0,63.0,84,30.06,10.0,South,9.2,-,N/A,,Scattered Clouds,170,2013-08-19 04:35:00
11:55 PM,68.9,63.0,81,30.05,10.0,South,9.2,-,N/A,,Mostly Cloudy,170,2013-08-19 04:55:00